Aérodrome :
LOGIN :

S'inscrire | Disclaimer

   EN    FR    IT 

 










Légende :    VFR   VFR Marginal   IFR   IFR Intensif   IFR Très Intensif
Visi : 
Plafond : 
>= 8 km
>= 3000ft
5 à 8 km
1000 à 3000 ft
1500m à 5 km
500 à 1000 ft
800 à 1500m
200 à 500 ft
< 800m
< 200 ft
Symboles :   Orages  Brouillard  Fortes neiges  Fortes précipitations  Vent > 20 kt
SIGMETs :   Divers  Orages  Givrage  Turbulence  Onde Orograph.  Cendres Volcan.







- Altitude de l'aérodrome : 194 ft
- Code IATA : ANE
- Voir les cartes d'approche


LFJR - Angers Marcé

DERNIER METAR :
  • 230030Z AUTO 24004KT 9999 OVC048 11/08 Q1025

METARs EXPIRÉS :
  • 230000Z AUTO 25004KT CAVOK 11/08 Q1025
  • 222330Z AUTO 24003KT CAVOK 11/08 Q1025
  • 222300Z AUTO 24003KT CAVOK 11/08 Q1025
  • 222230Z AUTO 25004KT 9999 OVC049 11/08 Q1025
  • 222200Z AUTO 26005KT 9999 OVC049 11/08 Q1025
  • 222130Z AUTO 26004KT 230V300 9999 OVC049 11/08 Q1025

Prévision TAF périmée.
Pas de NOTAMs connus pour ce terrain.



MET'MAP, la Météo Aéronautique d'un coup d'oeil ! - Copyright ORBIFLY Décembre 2007 - Disclaimer

ORBIFLY MET'MAP TEAM :

Programmation & Développement : Alexandra Zaïnal
Conception & Développement : Baudouin d'Aumeries
Co-Programmation & Développement : Marc-Olivier Méhu
Soutien technique & logistique : Manuel Goepfert

Contact : metmap@orbifly.com




SOURCES & CREDITS :

   NOAA